When you browse on this site, cookies collect data to enhance your experience and personalize the content and advertising you see.
Visit our Privacy Policy to learn more. By continuing to use the site, you agree to this use of cookies and data.
  • In Hungary
  • List of Countries
  • For 7 days
  • Water Temperature
  • Satellite Maps
  • Weather Map
  • News
  • Weather Widgets
  • user-avatar
    Login

    Hourly Weather Barra

    Today, 19 March, Tuesday

    Time Temperature Precipitation Wind Pressure Humidity
    00:00 +28°C° 0 mm 4 mps 756 mmHg 29%
    01:00 +28°C° 0 mm 4 mps 756 mmHg 29%
    02:00 +28°C° 0 mm 4 mps 756 mmHg 28%
    03:00 +27°C° 0 mm 3 mps 756 mmHg 27%
    04:00 +27°C° 0 mm 3 mps 756 mmHg 26%
    05:00 +27°C° 0 mm 3 mps 756 mmHg 26%
    06:00 +28°C° 0 mm 3 mps 756 mmHg 22%
    07:00 +29°C° 0 mm 3 mps 756 mmHg 18%
    08:00 +30°C° 0 mm 3 mps 756 mmHg 14%
    09:00 +34°C° 0 mm 3 mps 756 mmHg 12%
    10:00 +36°C° 0 mm 3 mps 756 mmHg 10%
    11:00 +39°C° 0 mm 3 mps 756 mmHg 8%
    12:00 +40°C° 0 mm 3 mps 756 mmHg 9%
    13:00 +42°C° 0 mm 4 mps 755 mmHg 9%
    14:00 +43°C° 0 mm 4 mps 755 mmHg 10%
    15:00 +41°C° 0 mm 5 mps 755 mmHg 14%
    16:00 +39°C° 0 mm 6 mps 754 mmHg 18%
    17:00 +36°C° 0 mm 6 mps 754 mmHg 22%
    18:00 +34°C° 0 mm 6 mps 755 mmHg 27%
    19:00 +32°C° 0 mm 6 mps 755 mmHg 32%
    20:00 +30°C° 0 mm 6 mps 755 mmHg 37%
    21:00 +29°C° 0 mm 5 mps 756 mmHg 36%
    22:00 +29°C° 0 mm 4 mps 756 mmHg 36%
    23:00 +28°C° 0 mm 4 mps 756 mmHg 35%

    Tomorrow, 20 March, Wednesday

    Time Temperature Precipitation Wind Pressure Humidity
    00:00 +28°C° 0 mm 3 mps 756 mmHg 34%
    01:00 +27°C° 0 mm 3 mps 756 mmHg 34%
    02:00 +27°C° 0 mm 3 mps 756 mmHg 34%
    03:00 +26°C° 0 mm 2 mps 756 mmHg 33%
    04:00 +26°C° 0 mm 2 mps 756 mmHg 33%
    05:00 +26°C° 0 mm 2 mps 756 mmHg 33%
    06:00 +27°C° 0 mm 2 mps 756 mmHg 31%
    07:00 +28°C° 0 mm 2 mps 757 mmHg 29%
    08:00 +29°C° 0 mm 2 mps 757 mmHg 27%
    09:00 +31°C° 0 mm 2 mps 757 mmHg 23%
    10:00 +35°C° 0 mm 2 mps 757 mmHg 19%
    11:00 +37°C° 0 mm 2 mps 757 mmHg 16%
    12:00 +38°C° 0 mm 3 mps 756 mmHg 16%
    13:00 +40°C° 0 mm 4 mps 756 mmHg 16%
    14:00 +41°C° 0 mm 5 mps 755 mmHg 16%
    15:00 +37°C° 0 mm 5 mps 755 mmHg 23%
    16:00 +35°C° 0 mm 6 mps 754 mmHg 30%
    17:00 +32°C° 0 mm 7 mps 754 mmHg 38%
    18:00 +30°C° 0 mm 6 mps 755 mmHg 41%
    19:00 +29°C° 0 mm 6 mps 755 mmHg 45%
    20:00 +28°C° 0 mm 6 mps 756 mmHg 49%
    21:00 +27°C° 0 mm 5 mps 756 mmHg 49%
    22:00 +27°C° 0 mm 5 mps 756 mmHg 49%
    23:00 +27°C° 0 mm 5 mps 757 mmHg 49%

    Day after tomorrow, 21 March, Thursday

    Time Temperature Precipitation Wind Pressure Humidity
    00:00 +27°C° 0 mm 4 mps 756 mmHg 51%
    01:00 +26°C° 0 mm 3 mps 756 mmHg 53%
    02:00 +25°C° 0 mm 2 mps 756 mmHg 55%
    03:00 +25°C° 0 mm 2 mps 756 mmHg 55%
    04:00 +25°C° 0 mm 2 mps 756 mmHg 56%
    05:00 +24°C° 0 mm 2 mps 756 mmHg 56%
    06:00 +25°C° 0 mm 3 mps 756 mmHg 52%
    07:00 +26°C° 0 mm 3 mps 757 mmHg 48%
    08:00 +27°C° 0 mm 3 mps 758 mmHg 45%
    09:00 +29°C° 0 mm 3 mps 758 mmHg 39%
    10:00 +31°C° 0 mm 3 mps 758 mmHg 32%
    11:00 +34°C° 0 mm 3 mps 758 mmHg 26%
    12:00 +35°C° 0 mm 4 mps 757 mmHg 26%
    13:00 +36°C° 0 mm 5 mps 756 mmHg 26%
    14:00 +36°C° 0 mm 6 mps 755 mmHg 26%
    15:00 +34°C° 0 mm 6 mps 755 mmHg 34%
    16:00 +32°C° 0 mm 7 mps 755 mmHg 42%
    17:00 +29°C° 0 mm 7 mps 755 mmHg 50%
    18:00 +28°C° 0 mm 7 mps 755 mmHg 52%
    19:00 +27°C° 0 mm 7 mps 756 mmHg 55%
    20:00 +26°C° 0 mm 7 mps 757 mmHg 58%
    21:00 +26°C° 0 mm 6 mps 757 mmHg 58%
    22:00 +24°C° 0 mm 6 mps 757 mmHg 58%
    23:00 +24°C° 0 mm 6 mps 758 mmHg 59%

    22 March, Friday

    Time Temperature Precipitation Wind Pressure Humidity
    00:00 +24°C° 0 mm 6 mps 757 mmHg 62%
    01:00 +23°C° 0 mm 6 mps 757 mmHg 65%
    02:00 +23°C° 0 mm 6 mps 756 mmHg 68%
    03:00 +22°C° 0 mm 5 mps 756 mmHg 70%
    04:00 +22°C° 0 mm 5 mps 756 mmHg 71%
    05:00 +22°C° 0 mm 5 mps 757 mmHg 73%
    06:00 +23°C° 0 mm 4 mps 757 mmHg 69%
    07:00 +23°C° 0 mm 4 mps 758 mmHg 66%
    08:00 +25°C° 0 mm 4 mps 759 mmHg 62%
    09:00 +27°C° 0 mm 4 mps 759 mmHg 53%
    10:00 +29°C° 0 mm 4 mps 759 mmHg 44%
    11:00 +30°C° 0 mm 3 mps 759 mmHg 35%
    12:00 +32°C° 0 mm 4 mps 758 mmHg 36%
    13:00 +33°C° 0 mm 5 mps 758 mmHg 36%
    14:00 +33°C° 0 mm 6 mps 757 mmHg 36%
    15:00 +32°C° 0 mm 6 mps 757 mmHg 41%
    16:00 +29°C° 0 mm 7 mps 757 mmHg 47%
    17:00 +28°C° 0 mm 7 mps 757 mmHg 53%
    18:00 +27°C° 0 mm 6 mps 757 mmHg 56%
    19:00 +26°C° 0 mm 6 mps 758 mmHg 60%
    20:00 +24°C° 0 mm 6 mps 759 mmHg 63%
    21:00 +24°C° 0 mm 6 mps 759 mmHg 64%
    22:00 +23°C° 0 mm 6 mps 759 mmHg 66%
    23:00 +23°C° 0 mm 6 mps 759 mmHg 67%

    23 March, Saturday

    Time Temperature Precipitation Wind Pressure Humidity
    00:00 +22°C° 0 mm 6 mps 759 mmHg 69%
    01:00 +22°C° 0 mm 6 mps 758 mmHg 71%
    02:00 +21°C° 0 mm 6 mps 758 mmHg 73%
    03:00 +21°C° 0 mm 6 mps 758 mmHg 75%
    04:00 +21°C° 0 mm 6 mps 758 mmHg 77%
    05:00 +21°C° 0 mm 5 mps 758 mmHg 79%
    06:00 +21°C° 0 mm 5 mps 758 mmHg 76%
    07:00 +22°C° 0 mm 5 mps 759 mmHg 73%
    08:00 +22°C° 0 mm 5 mps 759 mmHg 70%
    09:00 +26°C° 0 mm 5 mps 759 mmHg 58%
    10:00 +28°C° 0 mm 5 mps 759 mmHg 47%
    11:00 +30°C° 0 mm 5 mps 759 mmHg 35%
    12:00 +33°C° 0 mm 5 mps 758 mmHg 33%
    13:00 +34°C° 0 mm 5 mps 757 mmHg 31%
    14:00 +35°C° 0 mm 6 mps 756 mmHg 30%
    15:00 +33°C° 0 mm 6 mps 756 mmHg 35%
    16:00 +32°C° 0 mm 6 mps 756 mmHg 41%
    17:00 +29°C° 0 mm 7 mps 756 mmHg 47%
    18:00 +28°C° 0 mm 6 mps 757 mmHg 49%
    19:00 +28°C° 0 mm 6 mps 757 mmHg 50%
    20:00 +27°C° 0 mm 6 mps 758 mmHg 52%
    21:00 +26°C° 0 mm 6 mps 758 mmHg 53%
    22:00 +25°C° 0 mm 5 mps 758 mmHg 55%
    23:00 +23°C° 0 mm 5 mps 758 mmHg 56%

    24 March, Sunday

    Time Temperature Precipitation Wind Pressure Humidity
    00:00 +23°C° 0 mm 5 mps 757 mmHg 59%
    01:00 +22°C° 0 mm 5 mps 757 mmHg 61%
    02:00 +22°C° 0 mm 5 mps 756 mmHg 63%
    03:00 +21°C° 0 mm 5 mps 757 mmHg 65%
    04:00 +21°C° 0 mm 5 mps 757 mmHg 67%
    05:00 +21°C° 0 mm 5 mps 757 mmHg 68%
    06:00 +21°C° 0 mm 5 mps 757 mmHg 65%
    07:00 +22°C° 0 mm 5 mps 758 mmHg 63%
    08:00 +23°C° 0 mm 5 mps 759 mmHg 60%
    09:00 +26°C° 0 mm 4 mps 759 mmHg 50%
    10:00 +28°C° 0 mm 4 mps 759 mmHg 40%
    11:00 +30°C° 0 mm 4 mps 758 mmHg 31%
    12:00 +32°C° 0 mm 4 mps 758 mmHg 30%
    13:00 +33°C° 0 mm 5 mps 757 mmHg 29%
    14:00 +35°C° 0 mm 5 mps 756 mmHg 29%
    15:00 +33°C° 0 mm 6 mps 756 mmHg 37%
    16:00 +30°C° 0 mm 6 mps 756 mmHg 45%
    17:00 +28°C° 0 mm 6 mps 756 mmHg 53%
    18:00 +27°C° 0 mm 6 mps 756 mmHg 56%
    19:00 +26°C° 0 mm 6 mps 757 mmHg 59%
    20:00 +24°C° 0 mm 6 mps 757 mmHg 62%
    21:00 +24°C° 0 mm 6 mps 757 mmHg 63%
    22:00 +23°C° 0 mm 6 mps 757 mmHg 64%
    23:00 +23°C° 0 mm 5 mps 757 mmHg 65%
    Show more